| time (UTC) | temp C | wind direction | speed KPH | gust KPH | rain 1hr cm | rain 24hr cm | rain mn cm | humidity % | barometer mb |
| 20260507064752 | 16 | 207 | 4.8 | 17.7 | 0.00 | 0.28 | 0.00 | 66 | 1012.7 |
| 20260507064551 | 15 | 204 | 4.8 | 17.7 | 0.00 | 0.28 | 0.00 | 66 | 1012.7 |
| 20260507064357 | 15 | 202 | 9.7 | 17.7 | 0.00 | 0.28 | 0.00 | 66 | 1012.7 |
| 20260507064151 | 15 | 223 | 6.4 | 16.1 | 0.00 | 0.28 | 0.00 | 66 | 1012.7 |
| 20260507063950 | 15 | 220 | 4.8 | 16.1 | 0.00 | 0.28 | 0.00 | 66 | 1012.6 |
| 20260507063750 | 15 | 219 | 8.0 | 16.1 | 0.00 | 0.28 | 0.00 | 66 | 1012.6 |
| 20260507063547 | 15 | 223 | 4.8 | 17.7 | 0.00 | 0.30 | 0.00 | 66 | 1012.6 |
| 20260507063348 | 15 | 204 | 8.0 | 17.7 | 0.00 | 0.30 | 0.00 | 66 | 1012.6 |
| 20260507063146 | 15 | 210 | 9.7 | 17.7 | 0.00 | 0.30 | 0.00 | 66 | 1012.6 |
| 20260507062946 | 15 | 188 | 9.7 | 17.7 | 0.00 | 0.30 | 0.00 | 66 | 1012.6 |
| 20260507062751 | 15 | 226 | 6.4 | 17.7 | 0.00 | 0.30 | 0.00 | 67 | 1012.5 |
| 20260507062548 | 15 | 189 | 6.4 | 16.1 | 0.00 | 0.33 | 0.00 | 67 | 1012.5 |
| 20260507062344 | 15 | 227 | 3.2 | 16.1 | 0.00 | 0.33 | 0.00 | 67 | 1012.5 |
| 20260507062145 | 15 | 231 | 4.8 | 16.1 | 0.00 | 0.33 | 0.00 | 68 | 1012.4 |
| 20260507061945 | 15 | 230 | 6.4 | 16.1 | 0.00 | 0.36 | 0.00 | 68 | 1012.5 |
| 20260507061743 | 15 | 244 | 6.4 | 16.1 | 0.00 | 0.38 | 0.00 | 67 | 1012.5 |
| 20260507061542 | 15 | 200 | 8.0 | 16.1 | 0.00 | 0.38 | 0.00 | 68 | 1012.5 |
| 20260507061351 | 15 | 192 | 6.4 | 14.5 | 0.00 | 0.41 | 0.00 | 67 | 1012.5 |
| 20260507061142 | 15 | 154 | 6.4 | 14.5 | 0.00 | 0.41 | 0.00 | 67 | 1012.4 |
| 20260507060941 | 15 | 202 | 6.4 | 14.5 | 0.00 | 0.43 | 0.00 | 67 | 1012.4 |
| 20260507060742 | 15 | 206 | 3.2 | 9.7 | 0.00 | 0.43 | 0.00 | 68 | 1012.5 |
| 20260507060540 | 15 | 221 | 4.8 | 9.7 | 0.00 | 0.43 | 0.00 | 68 | 1012.4 |
| 20260507060344 | 15 | 200 | 4.8 | 8.0 | 0.00 | 0.43 | 0.00 | 68 | 1012.3 |
| 20260507060138 | 15 | 200 | 4.8 | 8.0 | 0.00 | 0.46 | 0.00 | 68 | 1012.3 |
| 20260507055936 | 15 | 212 | 4.8 | 8.0 | 0.00 | 0.46 | 0.00 | 68 | 1012.3 |
| 20260507055738 | 15 | 209 | 4.8 | 8.0 | 0.00 | 0.46 | 0.00 | 69 | 1012.3 |
| 20260507055537 | 15 | 214 | 4.8 | 8.0 | 0.00 | 0.46 | 0.00 | 70 | 1012.2 |
| 20260507055340 | 14 | 213 | 3.2 | 6.4 | 0.00 | 0.48 | 0.00 | 70 | 1012.2 |
| 20260507055136 | 14 | 206 | 3.2 | 9.7 | 0.00 | 0.51 | 0.00 | 71 | 1012.2 |
| 20260507054934 | 14 | 206 | 3.2 | 11.3 | 0.00 | 0.51 | 0.00 | 71 | 1012.1 |
| 20260507054733 | 14 | 203 | 3.2 | 11.3 | 0.00 | 0.51 | 0.00 | 71 | 1012.2 |
| 20260507054533 | 14 | 195 | 4.8 | 11.3 | 0.00 | 0.53 | 0.00 | 71 | 1012.2 |
| 20260507054347 | 14 | 206 | 4.8 | 11.3 | 0.00 | 0.56 | 0.00 | 71 | 1012.2 |
| 20260507054132 | 14 | 202 | 6.4 | 11.3 | 0.00 | 0.58 | 0.00 | 71 | 1012.1 |
| 20260507053938 | 14 | 203 | 4.8 | 9.7 | 0.00 | 0.58 | 0.00 | 71 | 1012.2 |
| 20260507053735 | 14 | 217 | 4.8 | 9.7 | 0.00 | 0.61 | 0.00 | 71 | 1012.1 |
| 20260507053533 | 14 | 214 | 6.4 | 9.7 | 0.00 | 0.61 | 0.00 | 71 | 1012.1 |
| 20260507053334 | 14 | 197 | 3.2 | 8.0 | 0.00 | 0.61 | 0.00 | 71 | 1012.1 |
| 20260507053130 | 14 | 189 | 3.2 | 4.8 | 0.00 | 0.61 | 0.00 | 72 | 1012.1 |
| 20260507052930 | 14 | 189 | 3.2 | 4.8 | 0.00 | 0.64 | 0.00 | 73 | 1012.0 |
| 20260507052730 | 13 | 189 | 1.6 | 4.8 | 0.00 | 0.64 | 0.00 | 74 | 1012.0 |
| 20260507052529 | 13 | 189 | 0.0 | 4.8 | 0.00 | 0.64 | 0.00 | 74 | 1012.0 |
| 20260507052329 | 13 | 189 | 1.6 | 4.8 | 0.00 | 0.64 | 0.00 | 75 | 1012.0 |
| 20260507052131 | 13 | 189 | 1.6 | 6.4 | 0.00 | 0.64 | 0.00 | 75 | 1012.0 |
| 20260507051923 | 13 | 189 | 1.6 | 8.0 | 0.00 | 0.64 | 0.00 | 75 | 1011.9 |
| 20260507051723 | 13 | 189 | 1.6 | 8.0 | 0.00 | 0.66 | 0.00 | 76 | 1011.8 |
| 20260507051523 | 13 | 189 | 3.2 | 8.0 | 0.00 | 0.66 | 0.00 | 76 | 1011.9 |
| 20260507051332 | 13 | 189 | 3.2 | 8.0 | 0.00 | 0.66 | 0.00 | 77 | 1011.9 |
| 20260507051120 | 13 | 195 | 3.2 | 8.0 | 0.00 | 0.66 | 0.00 | 77 | 1011.9 |
| 20260507050920 | 12 | 209 | 4.8 | 8.0 | 0.00 | 0.69 | 0.00 | 77 | 1011.9 |
| 20260507050717 | 12 | 199 | 4.8 | 8.0 | 0.00 | 0.69 | 0.00 | 78 | 1011.8 |
| 20260507050523 | 12 | 196 | 4.8 | 8.0 | 0.00 | 0.69 | 0.00 | 78 | 1011.9 |
| 20260507050316 | 12 | 204 | 3.2 | 8.0 | 0.00 | 0.69 | 0.00 | 80 | 1011.9 |
| 20260507050111 | 12 | 202 | 3.2 | 6.4 | 0.00 | 0.69 | 0.00 | 80 | 1011.9 |
| 20260507045910 | 12 | 203 | 4.8 | 6.4 | 0.00 | 0.69 | 0.00 | 81 | 1011.9 |
| 20260507045709 | 12 | 204 | 3.2 | 6.4 | 0.00 | 0.71 | 0.00 | 81 | 1011.8 |
| 20260507045515 | 12 | 203 | 3.2 | 4.8 | 0.00 | 0.71 | 0.00 | 82 | 1011.7 |
| 20260507045308 | 12 | 203 | 3.2 | 4.8 | 0.00 | 0.71 | 0.00 | 83 | 1011.7 |
| 20260507045107 | 12 | 203 | 3.2 | 4.8 | 0.00 | 0.71 | 0.00 | 84 | 1011.7 |
| 20260507044906 | 11 | 203 | 1.6 | 4.8 | 0.00 | 0.71 | 0.00 | 85 | 1011.7 |
| 20260507044706 | 11 | 203 | 0.0 | 4.8 | 0.00 | 0.71 | 0.00 | 85 | 1011.6 |
| 20260507044513 | 11 | 203 | 0.0 | 4.8 | 0.00 | 0.71 | 0.00 | 86 | 1011.7 |
| 20260507044303 | 11 | 203 | 1.6 | 4.8 | 0.00 | 0.74 | 0.00 | 86 | 1011.6 |
| 20260507044102 | 11 | 203 | 1.6 | 4.8 | 0.00 | 0.74 | 0.00 | 86 | 1011.5 |
| 20260507043909 | 11 | 203 | 1.6 | 4.8 | 0.00 | 0.76 | 0.00 | 86 | 1011.6 |
| 20260507043705 | 11 | 203 | 1.6 | 3.2 | 0.00 | 0.76 | 0.00 | 86 | 1011.5 |
| 20260507043507 | 11 | 203 | 0.0 | 3.2 | 0.00 | 0.76 | 0.00 | 86 | 1011.5 |
| 20260507043300 | 11 | 203 | 1.6 | 3.2 | 0.00 | 0.79 | 0.00 | 86 | 1011.5 |
| 20260507043059 | 11 | 203 | 1.6 | 4.8 | 0.00 | 0.79 | 0.00 | 86 | 1011.5 |
| 20260507042902 | 11 | 203 | 0.0 | 6.4 | 0.00 | 0.79 | 0.00 | 85 | 1011.5 |
| 20260507042659 | 11 | 203 | 0.0 | 6.4 | 0.00 | 0.81 | 0.00 | 85 | 1011.5 |
| 20260507042458 | 11 | 203 | 0.0 | 6.4 | 0.00 | 0.84 | 0.00 | 85 | 1011.4 |
| 20260507042259 | 11 | 203 | 1.6 | 6.4 | 0.00 | 0.89 | 0.00 | 85 | 1011.4 |
| 20260507042057 | 11 | 203 | 3.2 | 6.4 | 0.00 | 0.89 | 0.00 | 85 | 1011.4 |
| 20260507041859 | 11 | 262 | 3.2 | 6.4 | 0.00 | 0.91 | 0.00 | 85 | 1011.4 |
| 20260507041658 | 11 | 264 | 4.8 | 6.4 | 0.00 | 0.97 | 0.00 | 85 | 1011.4 |
| 20260507041457 | 11 | 264 | 3.2 | 6.4 | 0.00 | 0.99 | 0.00 | 85 | 1011.5 |
| 20260507041257 | 11 | 264 | 3.2 | 6.4 | 0.00 | 1.02 | 0.00 | 85 | 1011.5 |
| 20260507041055 | 11 | 264 | 1.6 | 6.4 | 0.00 | 1.07 | 0.00 | 85 | 1011.4 |
| 20260507040853 | 11 | 264 | 3.2 | 6.4 | 0.00 | 1.09 | 0.00 | 85 | 1011.4 |
| 20260507040651 | 11 | 264 | 3.2 | 6.4 | 0.00 | 1.12 | 0.00 | 85 | 1011.4 |
| 20260507040451 | 11 | 264 | 3.2 | 6.4 | 0.00 | 1.14 | 0.00 | 84 | 1011.4 |
| 20260507040250 | 11 | 264 | 1.6 | 6.4 | 0.00 | 1.17 | 0.00 | 85 | 1011.4 |
| 20260507040050 | 11 | 264 | 3.2 | 6.4 | 0.00 | 1.17 | 0.00 | 84 | 1011.4 |
| 20260507035853 | 11 | 264 | 3.2 | 6.4 | 0.00 | 1.19 | 0.00 | 84 | 1011.4 |
| 20260507035649 | 11 | 264 | 3.2 | 6.4 | 0.00 | 1.22 | 0.00 | 84 | 1011.3 |
| 20260507035450 | 12 | 264 | 4.8 | 6.4 | 0.00 | 1.24 | 0.00 | 84 | 1011.2 |
| 20260507035248 | 12 | 264 | 3.2 | 6.4 | 0.00 | 1.27 | 0.00 | 84 | 1011.2 |
| 20260507035047 | 12 | 264 | 0.0 | 4.8 | 0.00 | 1.27 | 0.00 | 84 | 1011.2 |
| 20260507034850 | 12 | 264 | 0.0 | 4.8 | 0.00 | 1.27 | 0.00 | 83 | 1011.2 |
| 20260507034652 | 12 | 264 | 0.0 | 6.4 | 0.00 | 1.27 | 0.00 | 83 | 1011.2 |
| 20260507034448 | 12 | 264 | 1.6 | 8.0 | 0.00 | 1.30 | 0.00 | 83 | 1011.2 |
| 20260507034246 | 12 | 264 | 1.6 | 8.0 | 0.00 | 1.30 | 0.00 | 83 | 1011.2 |
| 20260507034045 | 12 | 264 | 3.2 | 8.0 | 0.00 | 1.32 | 0.00 | 83 | 1011.1 |
| 20260507033846 | 12 | 264 | 3.2 | 8.0 | 0.00 | 1.32 | 0.00 | 82 | 1011.1 |
| 20260507033649 | 12 | 244 | 3.2 | 9.7 | 0.00 | 1.32 | 0.00 | 82 | 1011.2 |
| 20260507033443 | 12 | 227 | 1.6 | 9.7 | 0.00 | 1.32 | 0.00 | 82 | 1011.1 |
| 20260507033243 | 12 | 227 | 1.6 | 9.7 | 0.00 | 1.32 | 0.00 | 82 | 1011.1 |
| 20260507033041 | 12 | 227 | 3.2 | 9.7 | 0.00 | 1.32 | 0.00 | 82 | 1011.2 |
| 20260507032840 | 12 | 227 | 6.4 | 9.7 | 0.00 | 1.32 | 0.00 | 82 | 1011.1 |
| 20260507032639 | 12 | 224 | 8.0 | 8.0 | 0.00 | 1.32 | 0.00 | 82 | 1011.2 |
| 20260507032441 | 12 | 226 | 4.8 | 6.4 | 0.00 | 1.32 | 0.00 | 81 | 1011.1 |
| 20260507032239 | 12 | 226 | 3.2 | 4.8 | 0.00 | 1.32 | 0.00 | 81 | 1011.2 |
| 20260507032038 | 12 | 226 | 3.2 | 4.8 | 0.00 | 1.32 | 0.00 | 81 | 1011.2 |
| 20260507031839 | 12 | 226 | 1.6 | 6.4 | 0.00 | 1.32 | 0.00 | 81 | 1011.2 |
| 20260507031637 | 12 | 226 | 3.2 | 8.0 | 0.00 | 1.32 | 0.00 | 81 | 1011.1 |
| 20260507031438 | 12 | 226 | 1.6 | 8.0 | 0.00 | 1.32 | 0.00 | 81 | 1011.1 |
| 20260507031236 | 12 | 226 | 3.2 | 8.0 | 0.00 | 1.32 | 0.00 | 81 | 1011.0 |
| 20260507031040 | 12 | 226 | 3.2 | 8.0 | 0.00 | 1.32 | 0.00 | 81 | 1011.0 |
| 20260507030837 | 12 | 226 | 4.8 | 8.0 | 0.00 | 1.32 | 0.00 | 81 | 1011.0 |
| 20260507030636 | 12 | 224 | 3.2 | 8.0 | 0.00 | 1.32 | 0.00 | 81 | 1011.0 |
| 20260507030439 | 12 | 224 | 4.8 | 9.7 | 0.00 | 1.32 | 0.00 | 81 | 1011.0 |
| 20260507030236 | 12 | 226 | 6.4 | 9.7 | 0.00 | 1.32 | 0.00 | 81 | 1011.0 |
| 20260507030045 | 12 | 224 | 6.4 | 9.7 | 0.00 | 1.32 | 0.00 | 81 | 1011.0 |
| 20260507025832 | 12 | 220 | 6.4 | 9.7 | 0.00 | 1.32 | 0.00 | 81 | 1011.0 |
| 20260507025635 | 12 | 185 | 6.4 | 9.7 | 0.00 | 1.32 | 0.00 | 81 | 1011.0 |
| 20260507025432 | 12 | 230 | 6.4 | 9.7 | 0.00 | 1.32 | 0.00 | 81 | 1011.0 |
| 20260507025232 | 13 | 226 | 6.4 | 11.3 | 0.00 | 1.32 | 0.00 | 81 | 1011.1 |
| 20260507025030 | 13 | 220 | 6.4 | 14.5 | 0.00 | 1.35 | 0.00 | 80 | 1011.0 |
| 20260507024828 | 13 | 223 | 6.4 | 14.5 | 0.00 | 1.35 | 0.00 | 80 | 1011.0 |
| 20260507024626 | 13 | 223 | 6.4 | 14.5 | 0.00 | 1.35 | 0.00 | 80 | 1011.1 |
| 20260507024427 | 13 | 224 | 4.8 | 14.5 | 0.00 | 1.35 | 0.00 | 81 | 1011.0 |
| 20260507024228 | 13 | 224 | 6.4 | 9.7 | 0.00 | 1.35 | 0.00 | 81 | 1011.0 |
| 20260507024027 | 13 | 221 | 3.2 | 9.7 | 0.00 | 1.35 | 0.00 | 81 | 1011.0 |
| 20260507023824 | 13 | 227 | 3.2 | 9.7 | 0.00 | 1.37 | 0.00 | 81 | 1011.0 |
| 20260507023623 | 13 | 288 | 4.8 | 9.7 | 0.00 | 1.37 | 0.00 | 81 | 1010.9 |
| 20260507023226 | 13 | 203 | 3.2 | 8.0 | 0.00 | 1.40 | 0.00 | 80 | 1011.0 |
| 20260507023022 | 13 | 175 | 4.8 | 9.7 | 0.00 | 1.40 | 0.00 | 80 | 1010.9 |
| 20260507022820 | 13 | 228 | 3.2 | 9.7 | 0.00 | 1.40 | 0.00 | 79 | 1010.9 |
| 20260507022620 | 13 | 243 | 3.2 | 9.7 | 0.00 | 1.42 | 0.00 | 79 | 1011.0 |
| 20260507022419 | 13 | 226 | 4.8 | 9.7 | 0.00 | 1.42 | 0.00 | 79 | 1010.9 |
| 20260507022221 | 13 | 278 | 6.4 | 9.7 | 0.00 | 1.45 | 0.00 | 79 | 1010.9 |
| 20260507022020 | 13 | 233 | 6.4 | 17.7 | 0.00 | 1.45 | 0.00 | 79 | 1010.9 |
| 20260507021817 | 13 | 221 | 6.4 | 17.7 | 0.00 | 1.45 | 0.00 | 78 | 1010.9 |
| 20260507021617 | 13 | 202 | 6.4 | 17.7 | 0.00 | 1.45 | 0.00 | 78 | 1010.9 |
| 20260507021417 | 13 | 231 | 8.0 | 17.7 | 0.00 | 1.47 | 0.00 | 78 | 1010.9 |
| 20260507021218 | 13 | 213 | 8.0 | 17.7 | 0.00 | 1.50 | 0.00 | 78 | 1010.9 |
| 20260507021017 | 13 | 228 | 8.0 | 16.1 | 0.00 | 1.50 | 0.00 | 78 | 1010.8 |
| 20260507020813 | 13 | 226 | 11.3 | 16.1 | 0.00 | 1.52 | 0.00 | 78 | 1010.9 |
| 20260507020613 | 13 | 224 | 9.7 | 14.5 | 0.00 | 1.52 | 0.00 | 78 | 1011.0 |
| 20260507020420 | 13 | 224 | 8.0 | 11.3 | 0.00 | 1.52 | 0.00 | 78 | 1011.0 |
| 20260507020216 | 13 | 203 | 4.8 | 11.3 | 0.00 | 1.52 | 0.00 | 77 | 1010.9 |
| 20260507020038 | 13 | 310 | 6.4 | 17.7 | 0.00 | 1.52 | 0.00 | 77 | 1011.0 |
| 20260507015814 | 14 | 244 | 3.2 | 17.7 | 0.00 | 1.52 | 0.00 | 76 | 1010.9 |
| 20260507015609 | 14 | 261 | 3.2 | 17.7 | 0.00 | 1.52 | 0.00 | 76 | 1010.8 |
| 20260507015408 | 14 | 327 | 4.8 | 17.7 | 0.00 | 1.52 | 0.00 | 75 | 1010.9 |
| 20260507015207 | 14 | 248 | 8.0 | 17.7 | 0.00 | 1.52 | 0.00 | 75 | 1010.8 |
| 20260507015018 | 14 | 197 | 9.7 | 17.7 | 0.00 | 1.55 | 0.00 | 75 | 1010.8 |
| 20260507014807 | 14 | 226 | 9.7 | 17.7 | 0.00 | 1.55 | 0.00 | 74 | 1010.7 |
| 20260507014608 | 14 | 219 | 9.7 | 19.3 | 0.00 | 1.55 | 0.00 | 74 | 1010.8 |
| 20260507014405 | 14 | 228 | 8.0 | 19.3 | 0.00 | 1.55 | 0.00 | 75 | 1010.7 |
| 20260507014205 | 14 | 228 | 9.7 | 19.3 | 0.00 | 1.55 | 0.00 | 75 | 1010.7 |
| 20260507014013 | 14 | 200 | 9.7 | 19.3 | 0.00 | 1.55 | 0.00 | 75 | 1010.6 |
| 20260507013804 | 14 | 227 | 11.3 | 19.3 | 0.00 | 1.57 | 0.00 | 75 | 1010.6 |
| 20260507013608 | 14 | 186 | 9.7 | 20.9 | 0.00 | 1.57 | 0.00 | 75 | 1010.6 |
| 20260507013404 | 14 | 183 | 8.0 | 20.9 | 0.00 | 1.60 | 0.00 | 75 | 1010.7 |
| 20260507013201 | 14 | 206 | 8.0 | 20.9 | 0.00 | 1.60 | 0.00 | 75 | 1010.7 |
| 20260507013014 | 14 | 226 | 8.0 | 20.9 | 0.00 | 1.63 | 0.00 | 75 | 1010.7 |
| 20260507012802 | 14 | 188 | 11.3 | 20.9 | 0.00 | 1.65 | 0.00 | 75 | 1010.7 |
| 20260507012601 | 14 | 179 | 8.0 | 19.3 | 0.00 | 1.65 | 0.00 | 75 | 1010.7 |
| 20260507012401 | 14 | 200 | 8.0 | 19.3 | 0.00 | 1.68 | 0.00 | 75 | 1010.7 |
| 20260507012201 | 14 | 200 | 9.7 | 19.3 | 0.00 | 1.73 | 0.00 | 75 | 1010.6 |
| 20260507012001 | 14 | 217 | 11.3 | 19.3 | 0.00 | 1.73 | 0.00 | 75 | 1010.5 |
| 20260507011800 | 14 | 190 | 11.3 | 19.3 | 0.00 | 1.75 | 0.00 | 76 | 1010.6 |
| 20260507011559 | 14 | 196 | 6.4 | 22.5 | 0.00 | 1.75 | 0.00 | 77 | 1010.6 |
| 20260507011402 | 13 | 230 | 8.0 | 22.5 | 0.00 | 1.78 | 0.00 | 78 | 1010.6 |
| 20260507011137 | 13 | 223 | 3.2 | 22.5 | 0.00 | 1.80 | 0.00 | 79 | 1010.6 |
| 20260507010938 | 13 | 212 | 6.4 | 22.5 | 0.00 | 1.83 | 0.00 | 80 | 1010.7 |
| 20260507010738 | 13 | 226 | 1.6 | 6.4 | 0.00 | 1.83 | 0.00 | 80 | 1010.7 |
| 20260507010533 | 13 | 221 | 1.6 | 8.0 | 0.00 | 1.83 | 0.00 | 80 | 1010.6 |
| 20260507010330 | 13 | 221 | 1.6 | 9.7 | 0.00 | 1.83 | 0.00 | 81 | 1010.5 |
| 20260507010129 | 13 | 224 | 3.2 | 9.7 | 0.00 | 1.83 | 0.00 | 81 | 1010.5 |
| 20260507005931 | 13 | 224 | 3.2 | 9.7 | 0.00 | 1.85 | 0.00 | 81 | 1010.5 |
| 20260507005730 | 13 | 224 | 3.2 | 9.7 | 0.00 | 1.88 | 0.00 | 80 | 1010.6 |
| 20260507005534 | 13 | 226 | 6.4 | 9.7 | 0.00 | 1.93 | 0.00 | 80 | 1010.6 |
| 20260507005326 | 13 | 206 | 4.8 | 9.7 | 0.00 | 1.93 | 0.00 | 80 | 1010.6 |
| 20260507005128 | 13 | 212 | 6.4 | 9.7 | 0.00 | 1.96 | 0.00 | 80 | 1010.6 |
| 20260507004930 | 13 | 220 | 4.8 | 9.7 | 0.00 | 2.01 | 0.00 | 79 | 1010.7 |
| 20260507004725 | 13 | 226 | 6.4 | 9.7 | 0.00 | 2.03 | 0.00 | 79 | 1010.7 |
| 20260507004524 | 13 | 259 | 6.4 | 9.7 | 0.00 | 2.03 | 0.00 | 79 | 1010.7 |
| 20260507004323 | 13 | 264 | 6.4 | 9.7 | 0.00 | 2.06 | 0.00 | 79 | 1010.7 |
| 20260507004123 | 13 | 264 | 4.8 | 8.0 | 0.00 | 2.08 | 0.00 | 79 | 1010.7 |
| 20260507003922 | 13 | 276 | 1.6 | 9.7 | 0.00 | 2.11 | 0.00 | 79 | 1010.7 |
| 20260507003724 | 13 | 276 | 4.8 | 9.7 | 0.00 | 2.11 | 0.00 | 79 | 1010.7 |
| 20260507003520 | 13 | 245 | 4.8 | 9.7 | 0.00 | 2.11 | 0.00 | 80 | 1010.7 |
| 20260507003319 | 13 | 243 | 4.8 | 9.7 | 0.00 | 2.13 | 0.00 | 80 | 1010.8 |
| 20260507003118 | 13 | 243 | 6.4 | 9.7 | 0.00 | 2.16 | 0.00 | 80 | 1010.8 |
| 20260507002923 | 13 | 231 | 4.8 | 8.0 | 0.00 | 2.16 | 0.00 | 79 | 1010.8 |
| 20260507002716 | 13 | 231 | 4.8 | 8.0 | 0.00 | 2.18 | 0.00 | 79 | 1010.7 |
| 20260507002519 | 13 | 230 | 4.8 | 8.0 | 0.00 | 2.18 | 0.00 | 79 | 1010.8 |
| 20260507002316 | 13 | 230 | 6.4 | 9.7 | 0.00 | 2.18 | 0.00 | 79 | 1010.8 |
| 20260507002114 | 13 | 228 | 4.8 | 9.7 | 0.00 | 2.21 | 0.00 | 79 | 1010.7 |
| 20260507001924 | 13 | 228 | 4.8 | 11.3 | 0.00 | 2.21 | 0.00 | 79 | 1010.7 |
| 20260507001713 | 13 | 226 | 6.4 | 11.3 | 0.00 | 2.21 | 0.00 | 79 | 1010.7 |
| 20260507001518 | 13 | 226 | 8.0 | 11.3 | 0.00 | 2.21 | 0.00 | 79 | 1010.7 |
| 20260507001312 | 13 | 226 | 6.4 | 11.3 | 0.00 | 2.21 | 0.00 | 79 | 1010.7 |
| 20260507001111 | 13 | 227 | 8.0 | 11.3 | 0.00 | 2.21 | 0.00 | 79 | 1010.8 |
| 20260507000916 | 13 | 209 | 6.4 | 9.7 | 0.00 | 2.21 | 0.00 | 79 | 1010.8 |
| 20260507000715 | 13 | 207 | 6.4 | 9.7 | 0.00 | 2.21 | 0.00 | 79 | 1010.8 |
| 20260507000520 | 13 | 206 | 6.4 | 8.0 | 0.00 | 2.21 | 0.00 | 80 | 1010.8 |
| 20260507000314 | 13 | 206 | 3.2 | 6.4 | 0.00 | 2.21 | 0.00 | 80 | 1010.9 |
| 20260507000109 | 13 | 206 | 3.2 | 6.4 | 0.00 | 2.21 | 0.00 | 80 | 1010.9 |
| 20260506235916 | 13 | 206 | 3.2 | 6.4 | 0.00 | 2.21 | 0.00 | 80 | 1010.8 |
| 20260506235709 | 13 | 206 | 4.8 | 6.4 | 0.00 | 2.21 | 0.00 | 79 | 1010.8 |
| 20260506235515 | 13 | 206 | 3.2 | 4.8 | 0.00 | 2.21 | 0.00 | 79 | 1010.8 |
| 20260506235307 | 13 | 206 | 3.2 | 4.8 | 0.00 | 2.21 | 0.00 | 79 | 1010.8 |
| 20260506235105 | 13 | 206 | 3.2 | 4.8 | 0.00 | 2.21 | 0.00 | 79 | 1010.7 |
| 20260506234909 | 13 | 206 | 1.6 | 6.4 | 0.00 | 2.21 | 0.00 | 79 | 1010.7 |
| 20260506234703 | 13 | 206 | 3.2 | 9.7 | 0.00 | 2.21 | 0.00 | 79 | 1010.7 |
| 20260506234515 | 13 | 206 | 1.6 | 9.7 | 0.00 | 2.21 | 0.00 | 79 | 1010.8 |
| 20260506234309 | 13 | 206 | 3.2 | 9.7 | 0.00 | 2.24 | 0.00 | 79 | 1010.8 |
| 20260506234107 | 13 | 206 | 3.2 | 9.7 | 0.00 | 2.24 | 0.00 | 78 | 1010.7 |
| 20260506233901 | 13 | 204 | 4.8 | 9.7 | 0.00 | 2.26 | 0.00 | 79 | 1010.7 |
| 20260506233656 | 13 | 202 | 3.2 | 6.4 | 0.00 | 2.26 | 0.00 | 78 | 1010.6 |
| 20260506233456 | 13 | 202 | 3.2 | 6.4 | 0.00 | 2.26 | 0.00 | 78 | 1010.8 |
| 20260506233257 | 13 | 202 | 3.2 | 8.0 | 0.00 | 2.26 | 0.00 | 78 | 1010.9 |
| 20260506233057 | 13 | 202 | 3.2 | 8.0 | 0.00 | 2.26 | 0.00 | 78 | 1010.8 |
| 20260506232854 | 13 | 202 | 3.2 | 8.0 | 0.00 | 2.29 | 0.00 | 77 | 1010.8 |
| 20260506232654 | 13 | 202 | 4.8 | 8.0 | 0.00 | 2.29 | 0.00 | 77 | 1010.8 |
| 20260506232451 | 14 | 202 | 4.8 | 8.0 | 0.00 | 2.29 | 0.00 | 77 | 1010.9 |
| 20260506232250 | 14 | 202 | 4.8 | 8.0 | 0.00 | 2.29 | 0.00 | 76 | 1010.8 |
| 20260506232051 | 14 | 200 | 3.2 | 6.4 | 0.00 | 2.29 | 0.00 | 76 | 1010.7 |
| 20260506231850 | 14 | 200 | 3.2 | 6.4 | 0.00 | 2.29 | 0.00 | 76 | 1010.8 |
| 20260506231650 | 14 | 200 | 3.2 | 6.4 | 0.00 | 2.29 | 0.00 | 75 | 1010.8 |
| 20260506231450 | 14 | 200 | 3.2 | 6.4 | 0.00 | 2.29 | 0.00 | 75 | 1010.8 |
| 20260506231250 | 14 | 200 | 3.2 | 6.4 | 0.00 | 2.29 | 0.00 | 75 | 1010.9 |
| 20260506231037 | 14 | 200 | 3.2 | 6.4 | 0.00 | 2.29 | 0.00 | 74 | 1010.9 |
| 20260506230836 | 15 | 200 | 3.2 | 6.4 | 0.00 | 2.29 | 0.00 | 74 | 1010.9 |
| 20260506230636 | 15 | 200 | 3.2 | 8.0 | 0.00 | 2.29 | 0.00 | 73 | 1011.0 |
| 20260506230434 | 15 | 200 | 3.2 | 8.0 | 0.00 | 2.29 | 0.00 | 73 | 1010.9 |
| 20260506230237 | 15 | 200 | 3.2 | 9.7 | 0.00 | 2.29 | 0.00 | 72 | 1010.9 |
| 20260506230044 | 15 | 200 | 3.2 | 9.7 | 0.00 | 2.29 | 0.00 | 72 | 1010.8 |
| 20260506225836 | 15 | 196 | 4.8 | 9.7 | 0.00 | 2.29 | 0.00 | 71 | 1010.8 |
| 20260506225632 | 15 | 196 | 6.4 | 9.7 | 0.00 | 2.29 | 0.00 | 71 | 1010.9 |
| 20260506225430 | 15 | 204 | 6.4 | 9.7 | 0.00 | 2.29 | 0.00 | 71 | 1011.0 |
| 20260506225227 | 15 | 214 | 3.2 | 8.0 | 0.00 | 2.29 | 0.00 | 71 | 1010.9 |
| 20260506225031 | 15 | 214 | 4.8 | 8.0 | 0.00 | 2.29 | 0.00 | 71 | 1010.9 |
| 20260506224826 | 15 | 216 | 6.4 | 9.7 | 0.00 | 2.29 | 0.00 | 72 | 1010.9 |
| 20260506224626 | 15 | 216 | 4.8 | 9.7 | 0.00 | 2.29 | 0.00 | 72 | 1010.8 |
| 20260506224433 | 15 | 217 | 4.8 | 9.7 | 0.00 | 2.29 | 0.00 | 72 | 1010.9 |
| 20260506224225 | 15 | 217 | 4.8 | 9.7 | 0.00 | 2.29 | 0.00 | 71 | 1010.9 |
| 20260506224026 | 15 | 217 | 4.8 | 9.7 | 0.00 | 2.29 | 0.00 | 71 | 1010.9 |
| 20260506223822 | 15 | 217 | 3.2 | 9.7 | 0.00 | 2.29 | 0.00 | 71 | 1010.8 |
| 20260506223623 | 15 | 219 | 6.4 | 9.7 | 0.00 | 2.29 | 0.00 | 70 | 1010.8 |
| 20260506223423 | 15 | 202 | 3.2 | 8.0 | 0.00 | 2.29 | 0.00 | 70 | 1010.9 |
| 20260506223233 | 15 | 200 | 4.8 | 8.0 | 0.00 | 2.29 | 0.00 | 70 | 1010.8 |
| 20260506223023 | 15 | 203 | 3.2 | 9.7 | 0.00 | 2.29 | 0.00 | 70 | 1010.8 |
| 20260506222818 | 15 | 202 | 3.2 | 9.7 | 0.00 | 2.29 | 0.00 | 71 | 1010.8 |
| 20260506222618 | 15 | 199 | 4.8 | 9.7 | 0.00 | 2.29 | 0.00 | 71 | 1010.9 |
| 20260506222417 | 15 | 199 | 4.8 | 11.3 | 0.00 | 2.29 | 0.00 | 71 | 1010.9 |
| 20260506222218 | 15 | 195 | 6.4 | 14.5 | 0.00 | 2.29 | 0.00 | 71 | 1010.9 |
| 20260506222023 | 15 | 196 | 4.8 | 14.5 | 0.00 | 2.29 | 0.00 | 71 | 1010.8 |
| 20260506221811 | 15 | 197 | 3.2 | 14.5 | 0.00 | 2.29 | 0.00 | 71 | 1010.9 |
| 20260506221614 | 15 | 185 | 6.4 | 14.5 | 0.00 | 2.29 | 0.00 | 70 | 1010.9 |
| 20260506221411 | 15 | 202 | 6.4 | 16.1 | 0.00 | 2.29 | 0.00 | 71 | 1010.9 |
| 20260506221221 | 15 | 213 | 8.0 | 17.7 | 0.00 | 2.29 | 0.00 | 70 | 1010.8 |
| 20260506221025 | 15 | 207 | 8.0 | 17.7 | 0.00 | 2.29 | 0.00 | 70 | 1010.9 |
| 20260506220813 | 15 | 216 | 9.7 | 17.7 | 0.00 | 2.29 | 0.00 | 70 | 1010.9 |
| 20260506220614 | 15 | 243 | 11.3 | 17.7 | 0.00 | 2.29 | 0.00 | 69 | 1010.8 |
| 20260506220417 | 15 | 197 | 12.9 | 17.7 | 0.00 | 2.29 | 0.00 | 69 | 1010.7 |
| 20260506220218 | 16 | 258 | 8.0 | 17.7 | 0.00 | 2.29 | 0.00 | 68 | 1010.8 |
| 20260506220047 | 16 | 278 | 9.7 | 17.7 | 0.00 | 2.29 | 0.00 | 67 | 1010.8 |
| 20260506215813 | 16 | 290 | 9.7 | 17.7 | 0.00 | 2.29 | 2.29 | 65 | 1010.7 |
| 20260506215613 | 16 | 234 | 9.7 | 14.5 | 0.00 | 2.29 | 2.29 | 64 | 1010.6 |
| 20260506215412 | 16 | 180 | 6.4 | 11.3 | 0.00 | 2.29 | 2.29 | 64 | 1010.5 |
| 20260506215216 | 16 | 209 | 4.8 | 14.5 | 0.00 | 2.29 | 2.29 | 64 | 1010.4 |
| 20260506215025 | 16 | 212 | 4.8 | 22.5 | 0.00 | 2.29 | 2.29 | 64 | 1010.4 |
| 20260506214810 | 16 | 183 | 6.4 | 22.5 | 0.00 | 2.29 | 2.29 | 63 | 1010.4 |
| 20260506214611 | 16 | 182 | 6.4 | 22.5 | 0.00 | 2.29 | 2.29 | 63 | 1010.4 |
| 20260506214412 | 16 | 240 | 6.4 | 22.5 | 0.00 | 2.29 | 2.29 | 63 | 1010.4 |
| 20260506214213 | 16 | 227 | 6.4 | 22.5 | 0.00 | 2.29 | 2.29 | 63 | 1010.4 |
| 20260506214020 | 16 | 196 | 4.8 | 14.5 | 0.00 | 2.29 | 2.29 | 63 | 1010.4 |
| 20260506213812 | 16 | 200 | 4.8 | 14.5 | 0.00 | 2.29 | 2.29 | 63 | 1010.3 |
| 20260506213610 | 16 | 151 | 6.4 | 14.5 | 0.00 | 2.29 | 2.29 | 63 | 1010.4 |
| 20260506213413 | 16 | 192 | 6.4 | 8.0 | 0.00 | 2.29 | 2.29 | 64 | 1010.3 |
| 20260506213214 | 16 | 151 | 4.8 | 14.5 | 0.00 | 2.29 | 2.29 | 65 | 1010.4 |
| 20260506213021 | 16 | 189 | 1.6 | 14.5 | 0.00 | 2.29 | 2.29 | 65 | 1010.3 |
| 20260506212813 | 16 | 178 | 1.6 | 14.5 | 0.00 | 2.29 | 2.29 | 65 | 1010.3 |
| 20260506212611 | 16 | 164 | 3.2 | 14.5 | 0.00 | 2.29 | 2.29 | 66 | 1010.4 |
| 20260506212415 | 16 | 221 | 6.4 | 14.5 | 0.00 | 2.29 | 2.29 | 66 | 1010.4 |
| 20260506212216 | 15 | 224 | 4.8 | 11.3 | 0.00 | 2.29 | 2.29 | 67 | 1010.3 |
| 20260506212023 | 15 | 233 | 4.8 | 11.3 | 0.00 | 2.29 | 2.29 | 67 | 1010.3 |
| 20260506211811 | 15 | 199 | 3.2 | 19.3 | 0.00 | 2.29 | 2.29 | 68 | 1010.4 |
| 20260506211610 | 15 | 196 | 4.8 | 19.3 | 0.00 | 2.29 | 2.29 | 68 | 1010.4 |
| 20260506211412 | 15 | 152 | 4.8 | 19.3 | 0.00 | 2.29 | 2.29 | 69 | 1010.4 |
| 20260506211214 | 15 | 223 | 3.2 | 19.3 | 0.00 | 2.29 | 2.29 | 69 | 1010.4 |
| 20260506211019 | 15 | 223 | 4.8 | 19.3 | 0.00 | 2.29 | 2.29 | 69 | 1010.4 |
| 20260506210812 | 15 | 235 | 3.2 | 8.0 | 0.00 | 2.29 | 2.29 | 70 | 1010.4 |
| 20260506210610 | 15 | 235 | 3.2 | 8.0 | 0.00 | 2.29 | 2.29 | 70 | 1010.5 |
| 20260506210411 | 15 | 235 | 4.8 | 8.0 | 0.00 | 2.29 | 2.29 | 70 | 1010.5 |
| 20260506210213 | 15 | 235 | 3.2 | 6.4 | 0.00 | 2.29 | 2.29 | 70 | 1010.5 |
| 20260506210038 | 15 | 235 | 4.8 | 6.4 | 0.00 | 2.29 | 2.29 | 70 | 1010.5 |
| 20260506205811 | 15 | 235 | 1.6 | 6.4 | 0.00 | 2.29 | 2.29 | 70 | 1010.5 |
| 20260506205614 | 15 | 235 | 3.2 | 6.4 | 0.00 | 2.29 | 2.29 | 69 | 1010.4 |
| 20260506205412 | 15 | 235 | 3.2 | 6.4 | 0.00 | 2.29 | 2.29 | 69 | 1010.5 |
| 20260506205213 | 15 | 235 | 3.2 | 4.8 | 0.00 | 2.29 | 2.29 | 69 | 1010.3 |
| 20260506205020 | 16 | 235 | 1.6 | 6.4 | 0.00 | 2.29 | 2.29 | 68 | 1010.3 |
| 20260506204812 | 16 | 235 | 1.6 | 6.4 | 0.00 | 2.29 | 2.29 | 67 | 1010.3 |
| 20260506204613 | 16 | 235 | 1.6 | 8.0 | 0.00 | 2.29 | 2.29 | 67 | 1010.3 |
| 20260506204412 | 16 | 235 | 1.6 | 11.3 | 0.00 | 2.29 | 2.29 | 67 | 1010.2 |
| 20260506204217 | 16 | 235 | 1.6 | 11.3 | 0.00 | 2.29 | 2.29 | 66 | 1010.2 |
| 20260506204032 | 16 | 235 | 4.8 | 11.3 | 0.00 | 2.29 | 2.29 | 66 | 1010.2 |
| 20260506203812 | 16 | 235 | 4.8 | 11.3 | 0.00 | 2.29 | 2.29 | 65 | 1010.2 |
| 20260506203613 | 16 | 220 | 6.4 | 11.3 | 0.00 | 2.29 | 2.29 | 64 | 1010.2 |
| 20260506203411 | 16 | 226 | 4.8 | 11.3 | 0.00 | 2.29 | 2.29 | 63 | 1010.2 |
| 20260506203213 | 16 | 197 | 3.2 | 11.3 | 0.00 | 2.29 | 2.29 | 62 | 1010.1 |
| 20260506203024 | 16 | 158 | 4.8 | 11.3 | 0.00 | 2.29 | 2.29 | 61 | 1010.1 |
| 20260506202812 | 16 | 186 | 0.0 | 8.0 | 0.00 | 2.29 | 2.29 | 61 | 1010.2 |
| 20260506202611 | 16 | 186 | 3.2 | 8.0 | 0.00 | 2.29 | 2.29 | 61 | 1010.1 |
| 20260506202410 | 16 | 217 | 3.2 | 8.0 | 0.00 | 2.29 | 2.29 | 61 | 1010.1 |
| 20260506202225 | 16 | 206 | 4.8 | 8.0 | 0.00 | 2.29 | 2.29 | 61 | 1010.2 |
| 20260506202027 | 16 | 235 | 4.8 | 8.0 | 0.00 | 2.29 | 2.29 | 60 | 1010.1 |
| 20260506201811 | 16 | 226 | 4.8 | 8.0 | 0.00 | 2.29 | 2.29 | 60 | 1010.0 |
| 20260506201615 | 16 | 195 | 1.6 | 6.4 | 0.00 | 2.29 | 2.29 | 61 | 1010.0 |
| 20260506201409 | 16 | 195 | 3.2 | 9.7 | 0.00 | 2.29 | 2.29 | 61 | 1010.0 |
| 20260506201203 | 17 | 209 | 1.6 | 9.7 | 0.00 | 2.29 | 2.29 | 61 | 1009.9 |
| 20260506201019 | 17 | 209 | 3.2 | 9.7 | 0.00 | 2.29 | 2.29 | 60 | 1009.9 |
| 20260506200806 | 17 | 212 | 4.8 | 9.7 | 0.00 | 2.29 | 2.29 | 60 | 1009.9 |
| 20260506200611 | 17 | 220 | 6.4 | 9.7 | 0.00 | 2.29 | 2.29 | 59 | 1009.8 |
| 20260506200406 | 17 | 213 | 1.6 | 9.7 | 0.00 | 2.29 | 2.29 | 59 | 1009.8 |
| 20260506200204 | 17 | 231 | 6.4 | 9.7 | 0.00 | 2.29 | 2.29 | 59 | 1009.8 |
| 20260506200044 | 17 | 207 | 4.8 | 9.7 | 0.00 | 2.29 | 2.29 | 58 | 1009.8 |
| 20260506195804 | 17 | 199 | 3.2 | 9.7 | 0.00 | 2.29 | 2.29 | 58 | 1009.8 |
| 20260506195607 | 17 | 186 | 4.8 | 9.7 | 0.00 | 2.29 | 2.29 | 58 | 1009.7 |
| 20260506195401 | 17 | 228 | 4.8 | 16.1 | 0.00 | 2.29 | 2.29 | 58 | 1009.8 |
| 20260506195204 | 17 | 243 | 6.4 | 16.1 | 0.00 | 2.29 | 2.29 | 57 | 1009.7 |
| 20260506195001 | 17 | 212 | 4.8 | 16.1 | 0.00 | 2.29 | 2.29 | 57 | 1009.7 |
| 20260506194801 | 17 | 228 | 6.4 | 16.1 | 0.00 | 2.29 | 2.29 | 57 | 1009.7 |
| 20260506194608 | 17 | 223 | 6.4 | 16.1 | 0.00 | 2.29 | 2.29 | 57 | 1009.6 |
| 20260506194401 | 17 | 206 | 4.8 | 11.3 | 0.00 | 2.29 | 2.29 | 57 | 1009.7 |
| 20260506194200 | 17 | 206 | 6.4 | 14.5 | 0.00 | 2.29 | 2.29 | 56 | 1009.6 |
| 20260506193959 | 17 | 237 | 3.2 | 14.5 | 0.00 | 2.29 | 2.29 | 57 | 1009.6 |
| 20260506193759 | 17 | 219 | 6.4 | 16.1 | 0.00 | 2.29 | 2.29 | 56 | 1009.5 |
| 20260506193601 | 17 | 231 | 6.4 | 16.1 | 0.00 | 2.29 | 2.29 | 56 | 1009.4 |
| 20260506193359 | 17 | 212 | 4.8 | 16.1 | 0.00 | 2.29 | 2.29 | 56 | 1009.4 |
| 20260506193158 | 17 | 219 | 4.8 | 16.1 | 0.00 | 2.29 | 2.29 | 56 | 1009.4 |
| 20260506192957 | 17 | 182 | 8.0 | 17.7 | 0.00 | 2.29 | 2.29 | 56 | 1009.3 |
| 20260506192756 | 17 | 217 | 4.8 | 17.7 | 0.00 | 2.29 | 2.29 | 56 | 1009.3 |
| 20260506192600 | 18 | 234 | 4.8 | 17.7 | 0.00 | 2.29 | 2.29 | 55 | 1009.2 |
| 20260506192356 | 18 | 137 | 6.4 | 17.7 | 0.00 | 2.29 | 2.29 | 55 | 1009.2 |
| 20260506192156 | 18 | 214 | 9.7 | 17.7 | 0.00 | 2.29 | 2.29 | 55 | 1009.2 |
| 20260506191956 | 18 | 176 | 6.4 | 14.5 | 0.00 | 2.29 | 2.29 | 55 | 1009.1 |
| 20260506191756 | 18 | 206 | 4.8 | 11.3 | 0.00 | 2.29 | 2.29 | 55 | 1009.1 |
| 20260506191551 | 18 | 182 | 4.8 | 16.1 | 0.00 | 2.29 | 2.29 | 54 | 1009.1 |
| 20260506191354 | 18 | 209 | 4.8 | 16.1 | 0.00 | 2.29 | 2.29 | 54 | 1009.0 |
| 20260506191152 | 18 | 214 | 4.8 | 17.7 | 0.00 | 2.29 | 2.29 | 54 | 1008.9 |
| 20260506190951 | 18 | 183 | 8.0 | 22.5 | 0.00 | 2.29 | 2.29 | 54 | 1008.9 |
| 20260506190749 | 18 | 221 | 8.0 | 22.5 | 0.00 | 2.29 | 2.29 | 54 | 1008.9 |
| 20260506190553 | 18 | 161 | 6.4 | 22.5 | 0.00 | 2.29 | 2.29 | 54 | 1008.8 |
| 20260506190350 | 18 | 219 | 9.7 | 22.5 | 0.00 | 2.29 | 2.29 | 53 | 1008.9 |
| 20260506190149 | 18 | 202 | 9.7 | 22.5 | 0.00 | 2.29 | 2.29 | 53 | 1008.9 |
| 20260506185949 | 18 | 197 | 8.0 | 17.7 | 0.00 | 2.29 | 2.29 | 54 | 1008.9 |
| 20260506185749 | 18 | 219 | 6.4 | 17.7 | 0.00 | 2.29 | 2.29 | 54 | 1008.8 |
| 20260506185548 | 18 | 110 | 8.0 | 19.3 | 0.00 | 2.29 | 2.29 | 54 | 1008.9 |
| 20260506185346 | 18 | 204 | 6.4 | 19.3 | 0.00 | 2.29 | 2.29 | 54 | 1008.8 |
| 20260506185147 | 18 | 193 | 6.4 | 19.3 | 0.00 | 2.29 | 2.29 | 54 | 1008.8 |
| 20260506184949 | 18 | 223 | 8.0 | 19.3 | 0.00 | 2.29 | 2.29 | 55 | 1008.9 |
| 20260506184747 | 18 | 158 | 9.7 | 19.3 | 0.00 | 2.29 | 2.29 | 56 | 1008.8 |
| 20260506184550 | 18 | 233 | 11.3 | 19.3 | 0.00 | 2.29 | 2.29 | 56 | 1008.9 |
| 20260506184344 | 18 | 216 | 11.3 | 19.3 | 0.00 | 2.29 | 2.29 | 56 | 1008.8 |
| 20260506184142 | 18 | 162 | 11.3 | 19.3 | 0.00 | 2.29 | 2.29 | 56 | 1008.8 |
| 20260506183941 | 18 | 157 | 12.9 | 19.3 | 0.00 | 2.29 | 2.29 | 56 | 1008.8 |
| 20260506183742 | 18 | 233 | 9.7 | 19.3 | 0.00 | 2.29 | 2.29 | 57 | 1008.7 |
| 20260506183539 | 18 | 227 | 9.7 | 19.3 | 0.00 | 2.29 | 2.29 | 57 | 1008.7 |
| 20260506183339 | 18 | 213 | 9.7 | 19.3 | 0.00 | 2.29 | 2.29 | 57 | 1008.7 |
| 20260506183139 | 18 | 175 | 9.7 | 19.3 | 0.00 | 2.29 | 2.29 | 57 | 1008.7 |
| 20260506182939 | 18 | 189 | 6.4 | 14.5 | 0.00 | 2.29 | 2.29 | 57 | 1008.7 |
| 20260506182738 | 18 | 148 | 6.4 | 14.5 | 0.00 | 2.29 | 2.29 | 57 | 1008.6 |
| 20260506182543 | 18 | 158 | 6.4 | 14.5 | 0.00 | 2.29 | 2.29 | 57 | 1008.6 |
| 20260506182345 | 18 | 189 | 6.4 | 14.5 | 0.00 | 2.29 | 2.29 | 58 | 1008.6 |
| 20260506182139 | 18 | 175 | 4.8 | 11.3 | 0.00 | 2.29 | 2.29 | 57 | 1008.6 |
| 20260506181938 | 18 | 137 | 3.2 | 19.3 | 0.00 | 2.29 | 2.29 | 57 | 1008.6 |
| 20260506181738 | 18 | 165 | 6.4 | 19.3 | 0.00 | 2.29 | 2.29 | 57 | 1008.6 |
| 20260506181537 | 18 | 176 | 6.4 | 19.3 | 0.00 | 2.29 | 2.29 | 57 | 1008.6 |
| 20260506181338 | 18 | 209 | 4.8 | 19.3 | 0.00 | 2.29 | 2.29 | 58 | 1008.5 |
| 20260506181135 | 19 | 171 | 8.0 | 19.3 | 0.00 | 2.29 | 2.29 | 58 | 1008.4 |
| 20260506180934 | 19 | 230 | 8.0 | 16.1 | 0.00 | 2.29 | 2.29 | 58 | 1008.4 |
| 20260506180731 | 19 | 219 | 6.4 | 9.7 | 0.00 | 2.29 | 2.29 | 58 | 1008.4 |
| 20260506180529 | 19 | 193 | 4.8 | 9.7 | 0.00 | 2.29 | 2.29 | 59 | 1008.4 |
| 20260506180332 | 19 | 233 | 4.8 | 11.3 | 0.00 | 2.29 | 2.29 | 59 | 1008.5 |
| 20260506180130 | 19 | 213 | 3.2 | 11.3 | 0.00 | 2.29 | 2.29 | 59 | 1008.4 |
| 20260506175930 | 19 | 164 | 4.8 | 11.3 | 0.00 | 2.29 | 2.29 | 59 | 1008.5 |
| 20260506175729 | 19 | 188 | 3.2 | 14.5 | 0.00 | 2.29 | 2.29 | 59 | 1008.4 |
| 20260506175530 | 19 | 155 | 3.2 | 14.5 | 0.00 | 2.29 | 2.29 | 59 | 1008.4 |
| 20260506175329 | 19 | 165 | 3.2 | 14.5 | 0.00 | 2.29 | 2.29 | 60 | 1008.4 |
| 20260506175132 | 19 | 147 | 3.2 | 14.5 | 0.00 | 2.29 | 2.29 | 60 | 1008.3 |
| 20260506174929 | 19 | 142 | 6.4 | 14.5 | 0.00 | 2.29 | 2.29 | 60 | 1008.4 |
| 20260506174729 | 19 | 202 | 3.2 | 9.7 | 0.00 | 2.29 | 2.29 | 59 | 1008.4 |
| 20260506174529 | 19 | 196 | 3.2 | 9.7 | 0.00 | 2.29 | 2.29 | 59 | 1008.4 |
| 20260506174329 | 19 | 185 | 3.2 | 9.7 | 0.00 | 2.29 | 2.29 | 60 | 1008.4 |
| 20260506174125 | 19 | 202 | 4.8 | 16.1 | 0.00 | 2.29 | 2.29 | 60 | 1008.3 |
| 20260506174001 | 19 | 186 | 6.4 | 16.1 | 0.00 | 2.29 | 2.29 | 60 | 1008.3 |
| 20260506173900 | 19 | 193 | 4.8 | 16.1 | 0.00 | 2.29 | 2.29 | 61 | 1008.3 |
| 20260506173753 | 19 | 195 | 3.2 | 16.1 | 0.00 | 2.29 | 2.29 | 60 | 1008.2 |
| 20260506164716 | 20 | 169 | 3.2 | 17.7 | 0.00 | 2.29 | 2.29 | 68 | 1008.0 |
| 20260506164519 | 20 | 110 | 4.8 | 17.7 | 0.00 | 2.29 | 2.29 | 67 | 1008.0 |
| 20260506164303 | 20 | 197 | 4.8 | 17.7 | 0.00 | 2.29 | 2.29 | 67 | 1007.9 |
| 20260506164107 | 20 | 213 | 6.4 | 17.7 | 0.00 | 2.29 | 2.29 | 66 | 1007.9 |
| 20260506163903 | 20 | 145 | 8.0 | 17.7 | 0.00 | 2.29 | 2.29 | 67 | 1007.9 |
| 20260506163705 | 20 | 192 | 4.8 | 11.3 | 0.00 | 2.29 | 2.29 | 69 | 1007.9 |
| 20260506163501 | 20 | 224 | 4.8 | 17.7 | 0.00 | 2.29 | 2.29 | 68 | 1007.9 |
| 20260506163302 | 20 | 207 | 8.0 | 17.7 | 0.00 | 2.29 | 2.29 | 68 | 1007.9 |
| 20260506163102 | 20 | 206 | 6.4 | 17.7 | 0.00 | 2.29 | 2.29 | 66 | 1007.9 |
| 20260506162901 | 20 | 185 | 8.0 | 17.7 | 0.00 | 2.29 | 2.29 | 66 | 1007.9 |
| 20260506162701 | 20 | 189 | 8.0 | 17.7 | 0.00 | 2.29 | 2.29 | 65 | 1007.8 |
| 20260506162511 | 20 | 179 | 8.0 | 16.1 | 0.00 | 2.29 | 2.29 | 66 | 1007.9 |
| 20260506162301 | 20 | 186 | 8.0 | 16.1 | 0.00 | 2.29 | 2.29 | 67 | 1007.9 |
| 20260506162104 | 20 | 197 | 8.0 | 14.5 | 0.00 | 2.29 | 2.29 | 67 | 1007.8 |
| 20260506161900 | 20 | 227 | 6.4 | 14.5 | 0.00 | 2.29 | 2.29 | 67 | 1007.9 |
| 20260506161706 | 20 | 204 | 6.4 | 11.3 | 0.00 | 2.29 | 2.29 | 67 | 1007.9 |
| 20260506161500 | 20 | 193 | 6.4 | 11.3 | 0.00 | 2.29 | 2.29 | 67 | 1007.9 |
| 20260506161306 | 20 | 227 | 6.4 | 11.3 | 0.00 | 2.29 | 2.29 | 67 | 1007.9 |
| 20260506161046 | 20 | 206 | 4.8 | 11.3 | 0.00 | 2.29 | 2.29 | 66 | 1007.9 |
| 20260506160846 | 20 | 199 | 6.4 | 11.3 | 0.00 | 2.29 | 2.29 | 66 | 1007.9 |
| 20260506160647 | 20 | 192 | 8.0 | 11.3 | 0.00 | 2.29 | 2.29 | 66 | 1007.8 |
| 20260506160443 | 20 | 213 | 6.4 | 14.5 | 0.00 | 2.29 | 2.29 | 66 | 1007.9 |
| 20260506160246 | 20 | 199 | 6.4 | 14.5 | 0.00 | 2.29 | 2.29 | 67 | 1007.8 |
| 20260506160044 | 20 | 224 | 6.4 | 14.5 | 0.00 | 2.29 | 2.29 | 67 | 1007.8 |
| 20260506155840 | 20 | 190 | 6.4 | 14.5 | 0.00 | 2.29 | 2.29 | 67 | 1007.9 |
| 20260506155640 | 20 | 210 | 6.4 | 14.5 | 0.00 | 2.29 | 2.29 | 67 | 1007.8 |
| 20260506155437 | 20 | 203 | 4.8 | 17.7 | 0.00 | 2.29 | 2.29 | 68 | 1007.8 |
| 20260506155236 | 20 | 202 | 4.8 | 17.7 | 0.00 | 2.29 | 2.29 | 68 | 1007.7 |
| 20260506155033 | 20 | 186 | 4.8 | 17.7 | 0.00 | 2.29 | 2.29 | 69 | 1007.6 |
| 20260506154833 | 20 | 216 | 6.4 | 17.7 | 0.00 | 2.29 | 2.29 | 69 | 1007.7 |
| 20260506154632 | 20 | 190 | 8.0 | 17.7 | 0.00 | 2.29 | 2.29 | 69 | 1007.7 |
| 20260506154433 | 20 | 214 | 9.7 | 17.7 | 0.00 | 2.29 | 2.29 | 69 | 1007.7 |
| 20260506154235 | 20 | 183 | 6.4 | 16.1 | 0.00 | 2.29 | 2.29 | 69 | 1007.6 |
| 20260506154036 | 20 | 203 | 6.4 | 16.1 | 0.00 | 2.29 | 2.29 | 69 | 1007.6 |
| 20260506153831 | 19 | 197 | 6.4 | 16.1 | 0.00 | 2.29 | 2.29 | 70 | 1007.7 |
| 20260506153630 | 19 | 182 | 6.4 | 16.1 | 0.00 | 2.29 | 2.29 | 70 | 1007.7 |
| 20260506153430 | 19 | 244 | 6.4 | 16.1 | 0.00 | 2.29 | 2.29 | 70 | 1007.6 |
| 20260506153223 | 19 | 131 | 4.8 | 11.3 | 0.00 | 2.29 | 2.29 | 71 | 1007.7 |
| 20260506153022 | 19 | 221 | 6.4 | 11.3 | 0.00 | 2.29 | 2.29 | 71 | 1007.7 |
| 20260506152819 | 19 | 199 | 6.4 | 9.7 | 0.00 | 2.29 | 2.29 | 72 | 1007.8 |
| 20260506152616 | 19 | 186 | 6.4 | 9.7 | 0.00 | 2.29 | 2.29 | 72 | 1007.8 |
| 20260506152418 | 19 | 195 | 6.4 | 9.7 | 0.00 | 2.29 | 2.29 | 72 | 1007.8 |
| 20260506152214 | 19 | 195 | 3.2 | 9.7 | 0.00 | 2.29 | 2.29 | 73 | 1007.8 |
| 20260506152020 | 19 | 193 | 3.2 | 9.7 | 0.00 | 2.29 | 2.29 | 72 | 1007.9 |
| 20260506151813 | 19 | 190 | 3.2 | 9.7 | 0.00 | 2.29 | 2.29 | 72 | 1007.9 |
| 20260506151613 | 19 | 182 | 3.2 | 9.7 | 0.00 | 2.29 | 2.29 | 72 | 1007.9 |
| 20260506151414 | 19 | 179 | 6.4 | 9.7 | 0.00 | 2.29 | 2.29 | 72 | 1007.9 |
| 20260506151210 | 19 | 212 | 3.2 | 9.7 | 0.00 | 2.29 | 2.29 | 73 | 1008.0 |
| 20260506151023 | 19 | 207 | 3.2 | 9.7 | 0.00 | 2.29 | 2.29 | 73 | 1008.1 |
| 20260506150815 | 19 | 192 | 3.2 | 6.4 | 0.00 | 2.29 | 2.29 | 73 | 1007.9 |
| 20260506150610 | 19 | 138 | 1.6 | 6.4 | 0.00 | 2.29 | 2.29 | 73 | 1007.9 |
| 20260506150411 | 19 | 131 | 1.6 | 8.0 | 0.00 | 2.29 | 2.29 | 73 | 1007.9 |
| 20260506150211 | 19 | 141 | 4.8 | 8.0 | 0.00 | 2.29 | 2.29 | 73 | 1007.9 |
| 20260506150030 | 19 | 204 | 1.6 | 9.7 | 0.00 | 2.29 | 2.29 | 74 | 1007.8 |
| 20260506145810 | 19 | 157 | 1.6 | 14.5 | 0.00 | 2.29 | 2.29 | 74 | 1007.8 |
| 20260506145603 | 19 | 154 | 4.8 | 14.5 | 0.00 | 2.29 | 2.29 | 74 | 1007.6 |
| 20260506145407 | 19 | 159 | 3.2 | 14.5 | 0.00 | 2.29 | 2.29 | 75 | 1007.8 |
| 20260506145205 | 19 | 168 | 6.4 | 20.9 | 0.00 | 2.29 | 2.29 | 74 | 1007.7 |
| 20260506145014 | 19 | 135 | 3.2 | 20.9 | 0.00 | 2.29 | 2.29 | 74 | 1007.7 |
| 20260506144808 | 19 | 114 | 4.8 | 20.9 | 0.00 | 2.29 | 2.29 | 74 | 1007.9 |
| 20260506144605 | 19 | 157 | 3.2 | 20.9 | 0.00 | 2.29 | 2.29 | 74 | 1008.0 |
| 20260506144410 | 19 | 203 | 8.0 | 20.9 | 0.00 | 2.29 | 2.29 | 74 | 1007.9 |
| 20260506144208 | 19 | 195 | 3.2 | 6.4 | 0.00 | 2.29 | 2.29 | 74 | 1008.0 |
| 20260506144006 | 19 | 204 | 3.2 | 8.0 | 0.00 | 2.29 | 2.29 | 74 | 1008.0 |
| 20260506143806 | 19 | 182 | 1.6 | 8.0 | 0.00 | 2.29 | 2.29 | 74 | 1008.0 |
| 20260506143602 | 19 | 162 | 3.2 | 11.3 | 0.00 | 2.29 | 2.29 | 74 | 1008.0 |
| 20260506143401 | 19 | 189 | 1.6 | 16.1 | 0.00 | 2.29 | 2.29 | 74 | 1008.0 |
| 20260506143203 | 19 | 188 | 4.8 | 22.5 | 0.00 | 2.29 | 2.29 | 74 | 1008.0 |
| 20260506143015 | 19 | 142 | 3.2 | 22.5 | 0.00 | 2.29 | 2.29 | 74 | 1007.9 |
| 20260506142805 | 19 | 203 | 6.4 | 22.5 | 0.00 | 2.29 | 2.29 | 74 | 1007.9 |
| 20260506142601 | 19 | 202 | 6.4 | 22.5 | 0.00 | 2.29 | 2.29 | 74 | 1007.8 |
| 20260506142401 | 19 | 142 | 9.7 | 22.5 | 0.00 | 2.29 | 2.29 | 73 | 1007.9 |
| 20260506142210 | 19 | 151 | 8.0 | 19.3 | 0.00 | 2.29 | 2.29 | 74 | 1007.9 |
| 20260506142014 | 19 | 213 | 8.0 | 19.3 | 0.00 | 2.29 | 2.29 | 74 | 1007.9 |
| 20260506141800 | 19 | 192 | 9.7 | 19.3 | 0.00 | 2.29 | 2.29 | 75 | 1007.7 |
| 20260506141600 | 19 | 226 | 6.4 | 17.7 | 0.00 | 2.29 | 2.29 | 76 | 1007.8 |
| 20260506141359 | 19 | 195 | 6.4 | 17.7 | 0.00 | 2.29 | 2.29 | 75 | 1007.8 |
| 20260506141206 | 19 | 155 | 8.0 | 16.1 | 0.00 | 2.29 | 2.29 | 75 | 1007.8 |
| 20260506140959 | 19 | 199 | 9.7 | 19.3 | 0.00 | 2.29 | 2.29 | 76 | 1007.9 |
| 20260506140801 | 19 | 175 | 6.4 | 19.3 | 0.00 | 2.29 | 2.29 | 76 | 1007.9 |
| 20260506140558 | 19 | 209 | 6.4 | 19.3 | 0.00 | 2.29 | 2.29 | 75 | 1007.9 |
| 20260506140357 | 19 | 200 | 9.7 | 19.3 | 0.00 | 2.29 | 2.29 | 75 | 1008.0 |
| 20260506140206 | 19 | 195 | 11.3 | 19.3 | 0.00 | 2.29 | 2.29 | 74 | 1008.0 |
| 20260506135959 | 19 | 197 | 8.0 | 19.3 | 0.00 | 2.29 | 2.29 | 74 | 1008.0 |
| 20260506135801 | 19 | 183 | 8.0 | 19.3 | 0.00 | 2.29 | 2.29 | 74 | 1008.3 |
| 20260506135557 | 19 | 230 | 6.4 | 19.3 | 0.00 | 2.29 | 2.29 | 73 | 1008.3 |
| 20260506135359 | 19 | 200 | 11.3 | 19.3 | 0.00 | 2.29 | 2.29 | 72 | 1008.4 |
| 20260506135159 | 19 | 133 | 8.0 | 19.3 | 0.00 | 2.29 | 2.29 | 73 | 1008.4 |
| 20260506134954 | 19 | 227 | 8.0 | 17.7 | 0.00 | 2.29 | 2.29 | 73 | 1008.4 |
| 20260506134751 | 19 | 197 | 6.4 | 24.1 | 0.00 | 2.29 | 2.29 | 73 | 1008.4 |
| 20260506134548 | 19 | 171 | 6.4 | 27.4 | 0.00 | 2.29 | 2.29 | 73 | 1008.4 |
| 20260506134350 | 19 | 206 | 8.0 | 27.4 | 0.00 | 2.29 | 2.29 | 72 | 1008.3 |
| 20260506134159 | 19 | 227 | 9.7 | 27.4 | 0.00 | 2.29 | 2.29 | 72 | 1008.3 |
| 20260506133947 | 19 | 228 | 11.3 | 27.4 | 0.00 | 2.29 | 2.29 | 73 | 1008.5 |
| 20260506133748 | 19 | 171 | 11.3 | 27.4 | 0.00 | 2.29 | 2.29 | 75 | 1008.4 |
| 20260506133546 | 18 | 200 | 12.9 | 22.5 | 0.00 | 2.29 | 2.29 | 76 | 1008.4 |
| 20260506133346 | 18 | 176 | 9.7 | 20.9 | 0.00 | 2.29 | 2.29 | 77 | 1008.4 |
| 20260506133146 | 18 | 197 | 9.7 | 22.5 | 0.00 | 2.29 | 2.29 | 77 | 1008.5 |
| 20260506132947 | 18 | 168 | 8.0 | 22.5 | 0.00 | 2.29 | 2.29 | 78 | 1008.5 |
| 20260506132744 | 18 | 200 | 9.7 | 22.5 | 0.00 | 2.29 | 2.29 | 78 | 1008.6 |
| 20260506132544 | 18 | 180 | 9.7 | 22.5 | 0.00 | 2.29 | 2.29 | 78 | 1008.7 |
| 20260506132343 | 18 | 162 | 9.7 | 22.5 | 0.00 | 2.29 | 2.29 | 78 | 1008.7 |
| 20260506132143 | 18 | 166 | 3.2 | 14.5 | 0.00 | 2.29 | 2.29 | 80 | 1008.7 |
| 20260506131940 | 18 | 192 | 4.8 | 14.5 | 0.00 | 2.29 | 2.29 | 80 | 1008.8 |
| 20260506131740 | 18 | 135 | 4.8 | 11.3 | 0.00 | 2.29 | 2.29 | 81 | 1008.6 |
| 20260506131539 | 18 | 254 | 6.4 | 11.3 | 0.00 | 2.29 | 2.29 | 82 | 1008.7 |
| 20260506131338 | 18 | 86 | 3.2 | 14.5 | 0.00 | 2.29 | 2.29 | 82 | 1008.6 |
| 20260506131145 | 18 | 118 | 4.8 | 16.1 | 0.00 | 2.29 | 2.29 | 83 | 1008.7 |
| 20260506130937 | 18 | 231 | 3.2 | 16.1 | 0.03 | 2.29 | 2.29 | 84 | 1008.7 |
| 20260506130743 | 18 | 216 | 3.2 | 16.1 | 0.03 | 2.29 | 2.29 | 84 | 1008.9 |
| 20260506130539 | 18 | 193 | 6.4 | 16.1 | 0.03 | 2.29 | 2.29 | 84 | 1008.8 |
| 20260506130332 | 18 | 224 | 6.4 | 20.9 | 0.03 | 2.29 | 2.29 | 84 | 1009.1 |
| 20260506130136 | 18 | 199 | 4.8 | 20.9 | 0.03 | 2.29 | 2.29 | 84 | 1009.0 |
| 20260506125930 | 18 | 179 | 6.4 | 20.9 | 0.03 | 2.26 | 2.29 | 85 | 1009.1 |
| 20260506125732 | 18 | 230 | 3.2 | 20.9 | 0.03 | 2.26 | 2.29 | 85 | 1009.1 |
| 20260506125528 | 18 | 180 | 6.4 | 20.9 | 0.03 | 2.26 | 2.29 | 85 | 1008.9 |
| 20260506125132 | 18 | 192 | 8.0 | 16.1 | 0.03 | 2.26 | 2.29 | 85 | 1009.0 |
| 20260506124928 | 18 | 175 | 4.8 | 16.1 | 0.03 | 2.26 | 2.29 | 86 | 1009.0 |
| 20260506124725 | 18 | 227 | 6.4 | 16.1 | 0.03 | 2.26 | 2.29 | 87 | 1009.0 |
| 20260506124528 | 18 | 206 | 3.2 | 8.0 | 0.03 | 2.26 | 2.29 | 87 | 1009.1 |
| 20260506124323 | 18 | 207 | 3.2 | 11.3 | 0.05 | 2.26 | 2.29 | 87 | 1008.9 |
| 20260506124136 | 18 | 172 | 3.2 | 11.3 | 0.05 | 2.26 | 2.29 | 87 | 1008.9 |
| 20260506123921 | 18 | 161 | 3.2 | 16.1 | 0.05 | 2.26 | 2.29 | 86 | 1008.9 |
| 20260506123720 | 18 | 212 | 3.2 | 16.1 | 0.05 | 2.26 | 2.29 | 86 | 1009.0 |
| 20260506123521 | 18 | 203 | 6.4 | 16.1 | 0.05 | 2.26 | 2.29 | 86 | 1009.0 |
| 20260506123319 | 18 | 217 | 3.2 | 16.1 | 0.05 | 2.26 | 2.29 | 86 | 1009.2 |
| 20260506123123 | 18 | 217 | 8.0 | 16.1 | 0.05 | 2.26 | 2.29 | 86 | 1009.1 |
| 20260506122916 | 18 | 193 | 8.0 | 16.1 | 0.05 | 2.26 | 2.29 | 87 | 1009.1 |
| 20260506122713 | 18 | 182 | 3.2 | 9.7 | 0.05 | 2.26 | 2.29 | 88 | 1008.9 |
| 20260506122519 | 18 | 234 | 3.2 | 9.7 | 0.05 | 2.26 | 2.29 | 88 | 1008.9 |
| 20260506122312 | 18 | 195 | 3.2 | 8.0 | 0.05 | 2.26 | 2.29 | 88 | 1008.8 |
| 20260506122113 | 18 | 193 | 3.2 | 8.0 | 0.05 | 2.26 | 2.29 | 89 | 1008.8 |
| 20260506121911 | 18 | 127 | 1.6 | 8.0 | 0.05 | 2.26 | 2.29 | 89 | 1008.7 |
| 20260506121712 | 18 | 110 | 0.0 | 8.0 | 0.05 | 2.26 | 2.29 | 89 | 1008.7 |
| 20260506121521 | 18 | 103 | 1.6 | 8.0 | 0.05 | 2.26 | 2.29 | 89 | 1008.8 |
| 20260506121312 | 18 | 168 | 3.2 | 6.4 | 0.05 | 2.26 | 2.29 | 89 | 1008.9 |
| 20260506121133 | 18 | 282 | 1.6 | 8.0 | 0.05 | 2.26 | 2.29 | 89 | 1008.8 |
| 20260506120911 | 18 | 282 | 1.6 | 8.0 | 0.03 | 2.26 | 2.26 | 89 | 1008.9 |
| 20260506120712 | 18 | 283 | 1.6 | 14.5 | 0.03 | 2.26 | 2.26 | 89 | 1009.1 |
| 20260506120520 | 18 | 283 | 0.0 | 16.1 | 0.03 | 2.26 | 2.26 | 89 | 1009.1 |
| 20260506120308 | 18 | 283 | 3.2 | 16.1 | 0.03 | 2.26 | 2.26 | 88 | 1009.0 |
| 20260506120112 | 18 | 223 | 1.6 | 16.1 | 0.03 | 2.26 | 2.26 | 88 | 1009.1 |
| 20260506115907 | 18 | 298 | 8.0 | 16.1 | 0.03 | 2.24 | 2.26 | 88 | 1009.0 |
| 20260506115708 | 18 | 282 | 9.7 | 19.3 | 0.03 | 2.24 | 2.26 | 88 | 1009.0 |
| 20260506115515 | 18 | 282 | 4.8 | 20.9 | 0.03 | 2.24 | 2.26 | 88 | 1009.1 |
| 20260506115308 | 18 | 195 | 4.8 | 25.7 | 0.03 | 2.24 | 2.26 | 88 | 1009.0 |
| 20260506115113 | 18 | 241 | 8.0 | 25.7 | 0.03 | 2.24 | 2.26 | 87 | 1009.1 |
| 20260506114912 | 18 | 285 | 11.3 | 25.7 | 0.03 | 2.24 | 2.26 | 86 | 1008.9 |
| 20260506114711 | 18 | 286 | 14.5 | 25.7 | 0.03 | 2.24 | 2.26 | 84 | 1009.0 |
| 20260506114519 | 18 | 213 | 14.5 | 25.7 | 0.03 | 2.24 | 2.26 | 80 | 1009.0 |
| 20260506114311 | 19 | 231 | 12.9 | 25.7 | 0.00 | 2.24 | 2.24 | 79 | 1008.9 |
| 20260506114126 | 19 | 180 | 11.3 | 25.7 | 0.00 | 2.24 | 2.24 | 78 | 1008.8 |
| 20260506113911 | 19 | 189 | 14.5 | 25.7 | 0.00 | 2.24 | 2.24 | 77 | 1008.8 |
| 20260506113713 | 19 | 220 | 11.3 | 24.1 | 0.00 | 2.24 | 2.24 | 77 | 1008.7 |
| 20260506113519 | 19 | 233 | 12.9 | 24.1 | 0.00 | 2.24 | 2.24 | 76 | 1008.7 |
| 20260506113319 | 19 | 221 | 14.5 | 24.1 | 0.00 | 2.24 | 2.24 | 75 | 1008.7 |
| 20260506113116 | 19 | 252 | 12.9 | 20.9 | 0.00 | 2.24 | 2.24 | 76 | 1008.7 |
| 20260506112909 | 19 | 203 | 11.3 | 19.3 | 0.00 | 2.24 | 2.24 | 76 | 1008.7 |
| 20260506112712 | 19 | 216 | 11.3 | 19.3 | 0.00 | 2.24 | 2.24 | 76 | 1008.6 |
| 20260506112520 | 19 | 192 | 6.4 | 19.3 | 0.00 | 2.24 | 2.24 | 76 | 1008.6 |
| 20260506112308 | 19 | 235 | 8.0 | 19.3 | 0.00 | 2.24 | 2.24 | 76 | 1008.8 |
| 20260506112111 | 19 | 196 | 9.7 | 19.3 | 0.00 | 2.24 | 2.24 | 76 | 1008.7 |
| 20260506111909 | 20 | 247 | 8.0 | 17.7 | 0.00 | 2.24 | 2.24 | 76 | 1008.7 |
| 20260506111708 | 20 | 195 | 8.0 | 20.9 | 0.00 | 2.24 | 2.24 | 75 | 1008.6 |
| 20260506111516 | 20 | 206 | 6.4 | 20.9 | 0.00 | 2.24 | 2.24 | 75 | 1008.7 |
| 20260506111310 | 20 | 186 | 4.8 | 20.9 | 0.00 | 2.24 | 2.24 | 75 | 1008.7 |
| 20260506111122 | 19 | 193 | 6.4 | 20.9 | 0.00 | 2.24 | 2.24 | 75 | 1008.5 |
| 20260506110908 | 19 | 192 | 11.3 | 20.9 | 0.00 | 2.24 | 2.24 | 74 | 1008.5 |
| 20260506110708 | 20 | 165 | 6.4 | 20.9 | 0.00 | 2.24 | 2.24 | 75 | 1008.6 |
| 20260506110517 | 19 | 159 | 6.4 | 22.5 | 0.00 | 2.24 | 2.24 | 75 | 1008.6 |
| 20260506110309 | 19 | 152 | 9.7 | 22.5 | 0.00 | 2.24 | 2.24 | 75 | 1008.6 |
| 20260506110113 | 20 | 149 | 6.4 | 22.5 | 0.00 | 2.24 | 2.24 | 75 | 1008.6 |
| 20260506105908 | 19 | 278 | 4.8 | 22.5 | 0.00 | 2.24 | 2.24 | 75 | 1008.5 |
| 20260506105709 | 19 | 250 | 8.0 | 22.5 | 0.00 | 2.24 | 2.24 | 76 | 1008.6 |
| 20260506105517 | 19 | 266 | 6.4 | 19.3 | 0.00 | 2.24 | 2.24 | 76 | 1008.6 |
| 20260506105313 | 19 | 124 | 9.7 | 25.7 | 0.00 | 2.24 | 2.24 | 76 | 1008.7 |
| 20260506105112 | 19 | 125 | 8.0 | 25.7 | 0.00 | 2.24 | 2.24 | 76 | 1008.7 |
| 20260506104909 | 19 | 155 | 9.7 | 25.7 | 0.00 | 2.24 | 2.24 | 76 | 1008.7 |
| 20260506104710 | 19 | 252 | 6.4 | 25.7 | 0.00 | 2.24 | 2.24 | 77 | 1008.7 |
| 20260506104524 | 19 | 196 | 12.9 | 25.7 | 0.00 | 2.24 | 2.24 | 77 | 1008.9 |
| 20260506104310 | 19 | 217 | 14.5 | 25.7 | 0.00 | 2.24 | 2.24 | 78 | 1008.9 |
| 20260506104111 | 19 | 226 | 11.3 | 19.3 | 0.00 | 2.24 | 2.24 | 82 | 1008.8 |
| 20260506103910 | 19 | 183 | 4.8 | 9.7 | 0.00 | 2.24 | 2.24 | 85 | 1008.8 |
| 20260506103710 | 18 | 155 | 1.6 | 9.7 | 0.00 | 2.24 | 2.24 | 86 | 1008.9 |
| 20260506103528 | 18 | 124 | 1.6 | 9.7 | 0.00 | 2.24 | 2.24 | 86 | 1008.8 |
| 20260506103310 | 18 | 125 | 4.8 | 9.7 | 0.00 | 2.24 | 2.24 | 86 | 1008.8 |
| 20260506103112 | 18 | 124 | 3.2 | 9.7 | 0.00 | 2.24 | 2.24 | 86 | 1008.8 |
| 20260506102909 | 18 | 59 | 3.2 | 8.0 | 0.00 | 2.24 | 2.24 | 87 | 1008.8 |
| 20260506102710 | 18 | 66 | 1.6 | 8.0 | 0.00 | 2.24 | 2.24 | 88 | 1008.7 |
| 20260506102517 | 18 | 66 | 0.0 | 14.5 | 0.00 | 2.24 | 2.24 | 88 | 1008.8 |
| 20260506102309 | 18 | 66 | 1.6 | 14.5 | 0.00 | 2.24 | 2.24 | 88 | 1008.8 |
| 20260506102112 | 18 | 63 | 3.2 | 14.5 | 0.00 | 2.24 | 2.24 | 88 | 1009.0 |
| 20260506101911 | 18 | 110 | 4.8 | 14.5 | 0.00 | 2.24 | 2.24 | 88 | 1008.9 |
| 20260506101711 | 18 | 134 | 8.0 | 19.3 | 0.00 | 2.24 | 2.24 | 88 | 1008.9 |
| 20260506101523 | 18 | 118 | 8.0 | 19.3 | 0.00 | 2.24 | 2.24 | 88 | 1008.8 |
| 20260506101317 | 18 | 120 | 4.8 | 19.3 | 0.00 | 2.24 | 2.24 | 89 | 1009.0 |
| 20260506101111 | 18 | 176 | 8.0 | 19.3 | 0.00 | 2.24 | 2.24 | 89 | 1008.9 |
| 20260506100910 | 18 | 51 | 9.7 | 19.3 | 0.00 | 2.24 | 2.24 | 89 | 1008.9 |
| 20260506100709 | 18 | 96 | 6.4 | 16.1 | 0.00 | 2.24 | 2.24 | 90 | 1009.0 |
| 20260506100518 | 18 | 94 | 6.4 | 14.5 | 0.00 | 2.24 | 2.24 | 90 | 1008.9 |
| 20260506100312 | 18 | 135 | 8.0 | 14.5 | 0.00 | 2.24 | 2.24 | 90 | 1009.0 |
| 20260506100113 | 17 | 103 | 3.2 | 11.3 | 0.00 | 2.26 | 2.24 | 92 | 1009.0 |
| 20260506095911 | 17 | 131 | 4.8 | 16.1 | 0.00 | 2.26 | 2.24 | 90 | 1009.0 |
| 20260506095713 | 17 | 133 | 3.2 | 16.1 | 0.00 | 2.29 | 2.24 | 91 | 1009.0 |
| 20260506095528 | 17 | 128 | 4.8 | 16.1 | 0.00 | 2.31 | 2.24 | 91 | 1009.0 |
| 20260506095310 | 17 | 138 | 4.8 | 20.9 | 0.00 | 2.31 | 2.24 | 91 | 1009.1 |
| 20260506095108 | 17 | 118 | 6.4 | 20.9 | 0.00 | 2.31 | 2.24 | 91 | 1009.1 |
| 20260506094910 | 17 | 80 | 4.8 | 20.9 | 0.00 | 2.34 | 2.24 | 91 | 1009.1 |
| 20260506094709 | 17 | 121 | 6.4 | 20.9 | 0.00 | 2.34 | 2.24 | 91 | 1009.0 |
| 20260506094522 | 17 | 87 | 8.0 | 20.9 | 0.00 | 2.36 | 2.24 | 91 | 1009.1 |
| 20260506094308 | 17 | 103 | 8.0 | 16.1 | 0.00 | 2.36 | 2.24 | 91 | 1009.0 |
| 20260506094109 | 16 | 127 | 8.0 | 16.1 | 0.00 | 2.36 | 2.24 | 91 | 1008.9 |
| 20260506093908 | 16 | 106 | 3.2 | 14.5 | 0.00 | 2.39 | 2.24 | 91 | 1009.0 |
| 20260506093708 | 16 | 106 | 4.8 | 14.5 | 0.03 | 2.39 | 2.24 | 91 | 1009.0 |
| 20260506093519 | 16 | 94 | 8.0 | 14.5 | 0.03 | 2.39 | 2.24 | 91 | 1008.9 |
| 20260506093312 | 16 | 117 | 6.4 | 11.3 | 0.03 | 2.39 | 2.24 | 91 | 1008.9 |
| 20260506093110 | 16 | 39 | 4.8 | 11.3 | 0.05 | 2.39 | 2.24 | 91 | 1008.9 |
| 20260506092907 | 16 | 63 | 4.8 | 9.7 | 0.05 | 2.39 | 2.24 | 91 | 1009.0 |
| 20260506092708 | 16 | 114 | 3.2 | 9.7 | 0.05 | 2.39 | 2.24 | 91 | 1009.1 |
| 20260506092519 | 16 | 123 | 3.2 | 9.7 | 0.05 | 2.39 | 2.24 | 91 | 1009.0 |
| 20260506092310 | 16 | 59 | 4.8 | 9.7 | 0.05 | 2.39 | 2.24 | 91 | 1009.1 |
| 20260506092108 | 16 | 47 | 3.2 | 11.3 | 0.05 | 2.41 | 2.24 | 91 | 1009.1 |
| 20260506091908 | 16 | 59 | 3.2 | 11.3 | 0.05 | 2.41 | 2.24 | 91 | 1009.0 |
| 20260506091708 | 16 | 52 | 4.8 | 11.3 | 0.05 | 2.41 | 2.24 | 91 | 1009.0 |
| 20260506091517 | 16 | 89 | 3.2 | 11.3 | 0.05 | 2.41 | 2.24 | 91 | 1009.0 |
| 20260506091304 | 16 | 90 | 4.8 | 11.3 | 0.05 | 2.41 | 2.24 | 91 | 1009.0 |
| 20260506091105 | 16 | 102 | 4.8 | 9.7 | 0.08 | 2.44 | 2.24 | 91 | 1009.0 |
| 20260506090904 | 16 | 124 | 3.2 | 9.7 | 0.08 | 2.44 | 2.24 | 91 | 1009.1 |
| 20260506090703 | 16 | 125 | 3.2 | 14.5 | 0.08 | 2.44 | 2.24 | 91 | 1009.1 |
| 20260506090514 | 15 | 125 | 4.8 | 14.5 | 0.08 | 2.44 | 2.24 | 91 | 1009.0 |
| 20260506090301 | 15 | 113 | 3.2 | 14.5 | 0.08 | 2.44 | 2.24 | 91 | 1009.0 |
| 20260506085903 | 15 | 96 | 4.8 | 16.1 | 0.08 | 2.39 | 2.24 | 91 | 1009.0 |
| 20260506085701 | 15 | 123 | 6.4 | 16.1 | 0.08 | 2.39 | 2.24 | 91 | 1009.0 |
| 20260506085501 | 15 | 144 | 4.8 | 16.1 | 0.08 | 2.39 | 2.24 | 91 | 1009.0 |
| 20260506085305 | 15 | 61 | 8.0 | 16.1 | 0.08 | 2.39 | 2.24 | 91 | 1009.1 |
| 20260506085102 | 15 | 32 | 6.4 | 11.3 | 0.08 | 2.39 | 2.24 | 91 | 1009.1 |
| 20260506084907 | 15 | 51 | 3.2 | 8.0 | 0.10 | 2.39 | 2.24 | 91 | 1009.1 |
| 20260506084705 | 15 | 94 | 3.2 | 8.0 | 0.10 | 2.39 | 2.24 | 91 | 1009.1 |
| 20260506084509 | 15 | 116 | 4.8 | 8.0 | 0.10 | 2.39 | 2.24 | 91 | 1009.1 |
| 20260506084301 | 15 | 106 | 6.4 | 8.0 | 0.10 | 2.39 | 2.24 | 91 | 1009.2 |
| 20260506084053 | 15 | 58 | 1.6 | 4.8 | 0.10 | 2.39 | 2.24 | 91 | 1009.3 |
| 20260506083851 | 15 | 51 | 1.6 | 4.8 | 0.10 | 2.39 | 2.24 | 91 | 1009.2 |
| 20260506083651 | 15 | 76 | 3.2 | 8.0 | 0.08 | 2.39 | 2.21 | 91 | 1009.3 |
| 20260506083450 | 15 | 75 | 3.2 | 11.3 | 0.10 | 2.41 | 2.21 | 91 | 1009.3 |
| 20260506083250 | 15 | 116 | 1.6 | 11.3 | 0.08 | 2.41 | 2.21 | 91 | 1009.3 |
| 20260506083049 | 15 | 116 | 1.6 | 11.3 | 0.08 | 2.41 | 2.21 | 91 | 1009.3 |
| 20260506082852 | 15 | 116 | 3.2 | 11.3 | 0.10 | 2.41 | 2.21 | 91 | 1009.3 |
| 20260506082649 | 15 | 149 | 4.8 | 11.3 | 0.10 | 2.41 | 2.21 | 91 | 1009.2 |
| 20260506082449 | 15 | 127 | 4.8 | 11.3 | 0.13 | 2.41 | 2.21 | 91 | 1009.2 |
| 20260506082248 | 15 | 117 | 3.2 | 14.5 | 0.13 | 2.41 | 2.18 | 91 | 1009.2 |
| 20260506082043 | 15 | 85 | 4.8 | 14.5 | 0.10 | 2.41 | 2.18 | 91 | 1009.3 |
| 20260506081849 | 15 | 79 | 4.8 | 14.5 | 0.10 | 2.41 | 2.18 | 91 | 1009.2 |
| 20260506081642 | 15 | 109 | 6.4 | 14.5 | 0.13 | 2.41 | 2.18 | 91 | 1009.2 |
| 20260506081438 | 15 | 117 | 8.0 | 14.5 | 0.13 | 2.41 | 2.18 | 91 | 1009.2 |
| 20260506081238 | 15 | 111 | 3.2 | 6.4 | 0.13 | 2.41 | 2.16 | 91 | 1009.1 |
| 20260506081038 | 15 | 111 | 3.2 | 6.4 | 0.13 | 2.41 | 2.16 | 91 | 1009.2 |
| 20260506080834 | 15 | 111 | 3.2 | 4.8 | 0.15 | 2.41 | 2.16 | 91 | 1009.1 |
| 20260506080634 | 15 | 111 | 1.6 | 4.8 | 0.15 | 2.41 | 2.16 | 91 | 1009.1 |
| 20260506080433 | 15 | 111 | 1.6 | 4.8 | 0.15 | 2.41 | 2.16 | 91 | 1009.1 |
| 20260506080233 | 15 | 111 | 0.0 | 6.4 | 0.15 | 2.41 | 2.16 | 91 | 1009.0 |
| 20260506080127 | 15 | 111 | 3.2 | 6.4 | 0.15 | 2.41 | 2.16 | 91 | 1009.1 |
| 20260506073419 | 15 | 130 | 1.6 | 6.4 | 0.15 | 2.29 | 2.11 | 91 | 1009.3 |
| 20260506073215 | 15 | 130 | 1.6 | 6.4 | 0.15 | 2.29 | 2.11 | 91 | 1009.3 |
| 20260506073022 | 15 | 130 | 0.0 | 6.4 | 0.15 | 2.29 | 2.11 | 91 | 1009.2 |
| 20260506072811 | 15 | 130 | 1.6 | 6.4 | 0.13 | 2.29 | 2.11 | 91 | 1009.2 |
| 20260506072611 | 15 | 130 | 1.6 | 9.7 | 0.15 | 2.29 | 2.11 | 91 | 1009.2 |
| 20260506072413 | 15 | 133 | 3.2 | 14.5 | 0.13 | 2.29 | 2.08 | 91 | 1009.2 |
| 20260506072212 | 15 | 133 | 4.8 | 14.5 | 0.15 | 2.29 | 2.08 | 91 | 1009.2 |
| 20260506072018 | 15 | 106 | 3.2 | 14.5 | 0.15 | 2.29 | 2.08 | 91 | 1009.3 |
| 20260506071808 | 15 | 125 | 4.8 | 14.5 | 0.15 | 2.29 | 2.06 | 91 | 1009.2 |
| 20260506071610 | 14 | 168 | 6.4 | 14.5 | 0.15 | 2.29 | 2.06 | 91 | 1009.3 |
| 20260506071409 | 14 | 106 | 6.4 | 14.5 | 0.15 | 2.29 | 2.03 | 91 | 1009.3 |
| 20260506071213 | 14 | 96 | 6.4 | 14.5 | 0.15 | 2.29 | 2.03 | 91 | 1009.3 |
| 20260506071022 | 14 | 169 | 4.8 | 14.5 | 0.15 | 2.29 | 2.03 | 91 | 1009.3 |
| 20260506070810 | 14 | 121 | 6.4 | 16.1 | 0.15 | 2.31 | 2.03 | 91 | 1009.3 |
| 20260506070612 | 14 | 123 | 6.4 | 17.7 | 0.18 | 2.31 | 2.03 | 91 | 1009.3 |
| 20260506070409 | 14 | 140 | 8.0 | 17.7 | 0.18 | 2.31 | 2.03 | 91 | 1009.4 |
| 20260506070207 | 14 | 120 | 6.4 | 17.7 | 0.20 | 2.31 | 2.03 | 91 | 1009.4 |